EW8311 Weather Reports


Display with metric or nautical units.
time (UTC)temp
F
wind
direction
speed
MPH
gust
MPH
rain 1hr
in
rain 24hr
in
rain mn
in
humidity
%
barometer
mb
20260506031540 65 315 2.0 6.0 0.00 0.35 0.21 40 1007.1
20260506030038 65 311 3.0 8.0 0.00 0.35 0.21 38 1006.9
20260506024542 66 315 4.0 10.0 0.00 0.42 0.21 36 1006.7
20260506023036 66 321 5.0 9.0 0.00 0.42 0.21 35 1006.5
20260506021535 67 293 4.0 9.0 0.00 0.42 0.21 34 1006.1
20260506020034 67 322 6.0 14.0 0.00 0.42 0.21 35 1005.9
20260506014535 69 332 8.0 16.0 0.00 0.47 0.21 34 1005.7
20260506013034 70 261 8.0 18.0 0.00 0.47 0.21 33 1005.5
20260506011559 71 308 10.0 17.0 0.00 0.47 0.21 31 1005.4
20260506010032 73 269 5.0 11.0 0.00 0.47 0.21 29 1005.2
20260506004537 72 322 5.0 12.0 0.00 0.50 0.21 29 1005.0
20260506003031 72 281 5.0 11.0 0.00 0.50 0.21 28 1005.1
20260506001529 74 257 3.0 11.0 0.00 0.50 0.21 31 1004.9
20260506000045 72 274 4.0 9.0 0.00 0.50 0.21 31 1004.9
20260505234539 72 298 3.0 14.0 0.00 0.53 0.21 31 1004.8
20260505233028 73 311 3.0 9.0 0.00 0.53 0.21 31 1004.8
20260505231533 74 323 4.0 11.0 0.00 0.53 0.21 29 1004.8
20260505230051 73 264 3.0 11.0 0.00 0.53 0.21 30 1004.7
20260505224538 72 103 3.0 9.0 0.00 0.53 0.21 29 1005.0
20260505223028 73 310 4.0 12.0 0.00 0.53 0.21 32 1005.1
20260505221528 74 302 5.0 10.0 0.00 0.53 0.21 33 1005.2
20260505220027 73 300 10.0 18.0 0.00 0.53 0.21 31 1005.2
20260505214527 74 298 10.0 15.0 0.00 0.53 0.21 32 1005.4
20260505213025 72 307 9.0 20.0 0.00 0.53 0.21 35 1005.4
20260505211527 72 249 6.0 14.0 0.00 0.53 0.21 37 1005.7
20260505210018 73 325 9.0 18.0 0.00 0.53 0.21 37 1005.7
20260505204515 71 316 6.0 17.0 0.00 0.53 0.21 40 1005.6
20260505203014 71 315 7.0 12.0 0.00 0.53 0.21 42 1005.8
20260505201511 68 316 3.0 8.0 0.00 0.53 0.21 52 1006.0
20260505200011 69 295 2.0 10.0 0.00 0.53 0.21 52 1006.1
20260505194509 70 299 6.0 10.0 0.00 0.53 0.21 50 1005.9
20260505193007 70 259 2.0 8.0 0.00 0.53 0.21 54 1006.2
20260505191505 68 314 4.0 8.0 0.00 0.53 0.21 55 1006.4
20260505190004 68 328 4.0 7.0 0.00 0.53 0.21 57 1006.6
20260505184505 69 340 2.0 5.0 0.00 0.53 0.21 59 1006.8
20260505183100 67 324 3.0 7.0 0.00 0.53 0.21 59 1006.8
20260505181559 67 262 1.0 4.0 0.00 0.53 0.21 58 1007.0
20260505180100 67 311 0.0 4.0 0.00 0.53 0.21 59 1007.2
20260505174555 65 316 2.0 9.0 0.00 0.53 0.21 61 1007.2
20260505173111 66 118 0.0 3.0 0.00 0.53 0.21 62 1007.2
20260505171605 64 246 0.0 3.0 0.00 0.53 0.21 65 1007.3
20260505170045 63 326 2.0 4.0 0.00 0.53 0.21 68 1007.1
20260505164543 63 271 1.0 4.0 0.00 0.53 0.21 73 1007.1
20260505163039 62 300 1.0 2.0 0.00 0.53 0.21 77 1007.3
20260505161539 61 326 2.0 4.0 0.00 0.53 0.21 76 1007.3
20260505153033 60 300 0.0 2.0 0.00 0.53 0.21 87 1006.9
20260505151534 60 224 0.0 0.0 0.00 0.53 0.21 89 1006.8
20260505124520 57 118 0.0 1.0 0.02 0.53 0.21 92 1005.9
20260505123017 57 118 0.0 0.0 0.02 0.53 0.21 91 1005.6
20260505121529 57 118 0.0 0.0 0.01 0.52 0.20 91 1005.2
20260505120015 57 118 0.0 1.0 0.01 0.51 0.19 90 1005.1
20260505114515 57 118 0.0 3.0 0.01 0.51 0.19 88 1005.2
20260505113013 57 321 1.0 4.0 0.02 0.51 0.19 88 1005.5
20260505111511 57 321 1.0 4.0 0.03 0.51 0.19 89 1005.1
20260505101504 56 325 2.0 3.0 0.04 0.48 0.16 92 1006.5
20260505100008 57 103 0.0 2.0 0.05 0.48 0.16 91 1006.9
20260505094500 57 103 0.0 1.0 0.06 0.48 0.16 91 1006.3
20260505093058 57 106 0.0 2.0 0.05 0.46 0.14 92 1007.5
20260505091617 57 103 0.0 4.0 0.04 0.44 0.12 92 1007.3
20260505090101 57 113 1.0 5.0 0.05 0.43 0.11 92 1007.7
20260505084552 58 114 1.0 2.0 0.06 0.42 0.10 91 1008.0
20260505083052 58 111 0.0 1.0 0.06 0.41 0.09 91 1008.4
20260505081549 58 113 0.0 2.0 0.06 0.39 0.07 91 1008.6
20260505080051 58 322 0.0 1.0 0.06 0.38 0.06 90 1008.9
20260505074545 58 322 0.0 2.0 0.04 0.36 0.04 89 1009.2
20260505073055 58 318 0.0 2.0 0.05 0.35 0.03 88 1009.0
20260505071545 58 314 0.0 1.0 0.05 0.33 0.01 88 1009.0
20260505070040 58 314 0.0 3.0 0.05 0.32 0.00 88 1008.6
20260505064537 58 328 0.0 2.0 0.06 0.32 0.32 88 1008.5
20260505063046 58 331 1.0 4.0 0.06 0.30 0.30 87 1008.4
20260505061539 58 322 1.0 3.0 0.05 0.28 0.28 88 1008.7
20260505060035 58 119 0.0 2.0 0.04 0.27 0.27 88 1008.5
20260505054543 59 119 0.0 1.0 0.04 0.26 0.26 88 1008.2
20260505053034 59 119 0.0 1.0 0.03 0.24 0.24 86 1008.6
20260505051539 59 332 0.0 0.0 0.02 0.23 0.23 84 1008.4
20260505041542 60 300 0.0 2.0 0.00 0.21 0.21 77 1008.3
20260505040026 60 310 2.0 4.0 0.02 0.21 0.21 74 1008.1
20260505034524 59 332 2.0 7.0 0.04 0.21 0.21 74 1007.7
20260505033025 58 314 0.0 6.0 0.05 0.21 0.21 80 1007.3